Location: Napa Junction
(38.1874°N, 122.2508°W)
Time: 15:59:40
(UTC+00:00)

USA 215 - Pass Details

Date: 08 September 2024
Orbit: 1099 x 1108 km, 123.0° (Epoch: 25 September)

Event Time Altitude Azimuth Distance (km) Brightness Sun altitude
Rises 13:00:01 0° 139° (SE) 3,902 6.5 -9.6°
Reaches altitude 10° 13:02:30 10° 141° (SE) 2,946 5.9 -9.1°
Maximum altitude 13:09:00 74° 226° (SW) 1,139 3.3 -7.8°
Drops below altitude 10° 13:15:32 10° 312° (NW) 2,958 5.2 -6.6°
Sets 13:18:01 0° 314° (NW) 3,918 5.8 -6.1°
